Location: Petruro
(41.0333°N, 14.7833°E)
Time: 08:58:06
(UTC+00:00)

NOSS 2-2 (E) - Pass Details

Date: 20 June 2021
Orbit: 448 x 1757 km, 63.3° (Epoch: 24 July)

Event Time Altitude Azimuth Distance (km) Brightness Sun altitude
Exits shadow 00:20:30 43° 75° (ENE) 648 3.8 -23.0°
Drops below altitude 10° 00:23:12 10° 43° (NE) 1,650 6.7 -22.9°
Sets 00:25:29 0° 39° (NE) 2,623 8.0 -22.7°
